Tracking 27422 objects as of 31-May-2023
HD Live streaming from Space Station
objects crossing your sky now

STARLINK-5199

Track STARLINK-5199 now!
10-day predictions
STARLINK-5199 is classified as:


NORAD ID: 54201
Int'l Code: 2022-141AW
Perigee: 546.1 km
Apogee: 547.6 km
Inclination: 53.2 °
Period: 95.4 minutes
Semi major axis: 6917 km
RCS: Unknown
Launch date: October 28, 2022
Source: United States (US)
Launch site: AIR FORCE WESTERN TEST RANGE (AFWTR)
Your satellite tracking list
Your tracking list is empty




NASA's NSSDC Master Catalog

Two Line Element Set (TLE):
1 54201U 22141AW  23150.50049535 -.00001791  00000-0 -94453-4 0  9993
2 54201  53.2149 226.7185 0001080  68.0157 292.0950 15.08836025 32892
Source of the keplerian elements: AFSPC